Location: Tel Aviv
(32.0670°N, 34.7670°E)
Time: 12:34:51
(UTC+03:00)

Transit 2A - Pass Details

Date: 25 January 2022
Orbit: 598 x 960 km, 66.7° (Epoch: 20 May)

Event Time Altitude Azimuth Distance (km) Brightness Sun altitude
Rises 11:27:19 0° 231° (SW) 3,454 9.7 38.6°
Reaches altitude 10° 11:29:59 10° 240° (WSW) 2,567 9.1 38.7°
Maximum altitude 11:35:22 33° 304° (WNW) 1,517 7.6 38.8°
Drops below altitude 10° 11:41:01 10° 7° (N) 2,692 8.5 38.9°
Sets 11:43:54 0° 16° (NNE) 3,647 9.1 39.0°
